Location: Edinburgh
(55.9500°N, 3.1600°W)
Time: 22:22:44
(UTC+01:00)

Envisat - Visible Passes

Search period start: 22 October 2019 00:00
Search period end: 31 October 2019 23:00
Orbit: 764 x 766 km, 98.1° (Epoch: 22 October)

Date Brightness Start Highest point End Pass type
(mag) Time Alt. Az. Time Alt. Az. Time Alt. Az.
22 Oct 3.1 18:59:58 10° SSE 19:05:04 86° WSW 19:10:12 10° NNW visible
22 Oct 5.8 20:41:34 10° SW 20:44:53 17° W 20:48:12 10° NW visible
23 Oct 6.0 07:01:44 10° NE 07:05:29 20° E 07:09:12 10° SE visible
23 Oct 3.1 18:23:25 10° SE 18:28:21 54° ENE 18:33:19 10° N visible
23 Oct 4.9 20:03:10 10° SSW 20:07:39 31° W 20:12:11 10° NNW visible
24 Oct 6.6 06:26:59 10° ENE 06:28:06 11° E 06:29:12 10° E visible
24 Oct 3.7 19:25:38 10° S 19:30:38 56° W 19:35:40 10° NNW visible
24 Oct 6.2 21:09:31 10° W 21:10:49 11° W 21:12:07 10° WNW visible
25 Oct 5.3 07:26:46 10° NNE 07:31:16 30° E 07:35:45 10° SSE visible
25 Oct 3.0 18:48:43 10° SSE 18:53:48 81° ENE 18:58:55 10° NNW visible
25 Oct 5.6 20:29:42 10° SW 20:33:27 21° W 20:37:15 10° NW visible
26 Oct 6.1 06:50:47 10° NE 06:54:03 17° E 06:57:19 10° SE visible
26 Oct 4.6 19:51:36 10° SSW 19:56:18 37° W 20:01:01 10° NNW visible
27 Oct 3.4 18:14:16 10° S 18:19:20 68° WSW 18:24:26 10° NNW visible
27 Oct 6.1 19:56:56 10° WSW 19:59:21 13° W 20:01:47 10° NW visible
28 Oct 5.6 06:15:40 10° NE 06:19:54 26° E 06:24:06 10° SSE visible
28 Oct 3.0 17:37:30 10° SSE 17:42:33 68° ENE 17:47:37 10° NNW visible
28 Oct 5.3 19:17:56 10° SW 19:22:03 24° W 19:26:11 10° NW visible
29 Oct 6.2 05:39:57 10° NE 05:42:36 14° E 05:45:15 10° ESE visible
29 Oct 4.2 18:40:06 10° S 18:44:57 44° W 18:49:50 10° NNW visible
30 Oct 3.1 18:02:57 10° SSE 18:08:02 81° WSW 18:13:10 10° NNW visible
30 Oct 5.9 19:44:49 10° WSW 19:47:55 16° W 19:51:02 10° NW visible
31 Oct 5.9 06:04:36 10° NE 06:08:30 22° E 06:12:22 10° SE visible
31 Oct 3.1 17:26:20 10° SE 17:31:18 57° ENE 17:36:18 10° N visible
31 Oct 5.0 19:06:16 10° SSW 19:10:40 29° W 19:15:06 10° NNW visible
